Time,TemperatureF,DewpointF,PressureIn,WindDirection,WindDirectionDegrees,WindSpeedMPH,WindSpeedGustMPH,Humidity,HourlyPrecipIn,Conditions,Clouds,dailyrainin,SoftwareType,DateUTC
2013-11-11 00:01:00,46.3,26.7,30.22,ESE,112,0.7,0.7,46,0.00,,---,0.00,VWS V14.01,2013-11-11 07:01:00,
2013-11-11 00:06:00,45.7,26.6,30.22,ESE,112,1.3,1.3,47,0.00,,---,0.00,VWS V14.01,2013-11-11 07:06:00,
2013-11-11 00:11:00,45.9,26.3,30.21,ESE,112,1.1,1.1,46,0.00,,---,0.00,VWS V14.01,2013-11-11 07:11:00,
2013-11-11 00:16:00,45.7,26.1,30.22,ESE,112,0.0,0.0,46,0.00,,---,0.00,VWS V14.01,2013-11-11 07:16:00,
2013-11-11 00:21:00,45.4,25.9,30.22,ESE,112,0.0,0.0,46,0.00,,---,0.00,VWS V14.01,2013-11-11 07:21:00,
2013-11-11 00:26:00,45.5,26.5,30.21,East,90,1.1,1.1,47,0.00,,---,0.00,VWS V14.01,2013-11-11 07:26:00,
2013-11-11 00:31:00,45.2,26.7,30.21,East,90,0.4,0.9,48,0.00,,---,0.24,VWS V14.01,2013-11-11 07:31:00,
2013-11-11 00:36:00,45.0,27.0,30.21,ESE,112,1.1,1.1,49,0.00,,---,0.00,VWS V14.01,2013-11-11 07:36:00,
2013-11-11 00:41:00,45.2,27.2,30.22,ESE,112,0.4,0.4,49,0.00,,---,0.00,VWS V14.01,2013-11-11 07:41:00,
2013-11-11 00:46:00,44.8,26.3,30.22,ESE,112,0.4,0.4,48,0.00,,---,0.00,VWS V14.01,2013-11-11 07:46:00,
2013-11-11 00:51:00,44.1,26.2,30.22,ESE,112,0.0,0.0,49,0.00,,---,0.00,VWS V14.01,2013-11-11 07:51:00,
2013-11-11 00:56:00,43.6,25.7,30.22,ESE,112,0.0,0.0,49,0.00,,---,0.00,VWS V14.01,2013-11-11 07:56:00,
2013-11-11 01:01:00,43.0,25.2,30.22,ESE,112,0.0,0.0,49,0.00,,---,0.00,VWS V14.01,2013-11-11 08:01:00,
2013-11-11 01:06:00,43.0,27.0,30.22,ESE,112,0.7,0.7,53,0.00,,---,0.00,VWS V14.01,2013-11-11 08:06:00,
2013-11-11 01:11:00,43.4,27.4,30.22,ESE,112,1.8,1.8,53,0.00,,---,0.00,VWS V14.01,2013-11-11 08:11:00,
2013-11-11 01:16:00,43.7,27.7,30.22,ESE,112,0.7,0.7,53,0.00,,---,0.00,VWS V14.01,2013-11-11 08:16:00,
2013-11-11 01:21:00,43.2,26.8,30.22,ESE,112,0.0,0.0,52,0.00,,---,0.00,VWS V14.01,2013-11-11 08:21:00,
2013-11-11 01:26:00,42.7,26.8,30.22,ESE,112,0.0,0.0,53,0.00,,---,0.00,VWS V14.01,2013-11-11 08:26:00,
2013-11-11 01:31:00,42.7,27.7,30.22,ESE,112,1.8,1.8,55,0.00,,---,0.00,VWS V14.01,2013-11-11 08:31:00,
2013-11-11 01:36:00,43.0,27.5,30.22,ESE,112,1.3,1.3,54,0.00,,---,0.00,VWS V14.01,2013-11-11 08:36:00,
2013-11-11 01:41:00,43.2,27.7,30.22,ESE,112,0.2,0.2,54,0.00,,---,0.00,VWS V14.01,2013-11-11 08:41:00,
2013-11-11 01:46:00,43.0,27.0,30.22,ESE,112,0.0,0.0,53,0.00,,---,0.00,VWS V14.01,2013-11-11 08:46:00,
2013-11-11 01:51:00,42.8,26.9,30.22,ESE,112,0.0,0.0,53,0.00,,---,0.00,VWS V14.01,2013-11-11 08:51:00,
2013-11-11 01:56:00,42.7,26.8,30.22,ESE,112,0.4,0.4,53,0.00,,---,0.00,VWS V14.01,2013-11-11 08:56:00,
2013-11-11 02:01:00,42.3,26.9,30.22,East,90,0.4,0.4,54,0.00,,---,0.00,VWS V14.01,2013-11-11 09:01:00,
2013-11-11 02:06:00,42.1,26.7,30.22,East,90,0.7,0.7,54,0.00,,---,0.00,VWS V14.01,2013-11-11 09:06:00,
2013-11-11 02:11:00,42.1,26.7,30.22,NNW,338,1.1,1.1,54,0.00,,---,0.00,VWS V14.01,2013-11-11 09:11:00,
2013-11-11 02:16:00,41.4,26.5,30.22,NNW,338,0.4,0.4,55,0.00,,---,0.00,VWS V14.01,2013-11-11 09:16:00,
2013-11-11 02:21:00,41.0,26.1,30.22,NNW,338,0.0,0.0,55,0.00,,---,0.00,VWS V14.01,2013-11-11 09:21:00,
2013-11-11 02:26:00,41.0,27.0,30.22,NE,45,1.1,1.1,57,0.00,,---,0.00,VWS V14.01,2013-11-11 09:26:00,
2013-11-11 02:31:00,41.2,27.1,30.22,NE,45,0.4,0.4,57,0.00,,---,0.00,VWS V14.01,2013-11-11 09:31:00,
2013-11-11 02:36:00,41.4,26.9,30.22,NE,45,0.2,0.2,56,0.00,,---,0.00,VWS V14.01,2013-11-11 09:36:00,
2013-11-11 02:41:00,41.4,27.3,30.22,NE,45,0.0,0.0,57,0.00,,---,0.00,VWS V14.01,2013-11-11 09:41:00,
2013-11-11 02:46:00,41.6,27.1,30.22,ENE,68,0.0,0.0,56,0.00,,---,0.00,VWS V14.01,2013-11-11 09:46:00,
2013-11-11 02:51:00,41.6,27.1,30.22,ENE,68,0.0,0.0,56,0.00,,---,0.00,VWS V14.01,2013-11-11 09:51:00,
2013-11-11 02:56:00,41.4,26.9,30.22,ENE,68,0.0,0.0,56,0.00,,---,0.00,VWS V14.01,2013-11-11 09:56:00,
2013-11-11 03:01:00,41.2,27.6,30.22,ESE,112,0.0,0.0,58,0.00,,---,0.00,VWS V14.01,2013-11-11 10:01:00,
2013-11-11 03:06:00,40.9,26.9,30.22,ESE,112,0.0,0.0,57,0.00,,---,0.00,VWS V14.01,2013-11-11 10:06:00,
2013-11-11 03:11:00,40.9,27.3,30.22,East,90,0.7,0.7,58,0.00,,---,0.00,VWS V14.01,2013-11-11 10:11:00,
2013-11-11 03:16:00,40.7,26.7,30.22,East,90,0.4,0.4,57,0.00,,---,0.00,VWS V14.01,2013-11-11 10:16:00,
2013-11-11 03:21:00,40.3,26.7,30.22,East,90,0.4,0.4,58,0.00,,---,0.00,VWS V14.01,2013-11-11 10:21:00,
2013-11-11 03:26:00,40.7,27.5,30.22,ESE,112,0.0,0.0,59,0.00,,---,0.00,VWS V14.01,2013-11-11 10:26:00,
2013-11-11 03:31:00,40.3,26.7,30.23,North,0,0.4,0.4,58,0.00,,---,0.00,VWS V14.01,2013-11-11 10:31:00,
2013-11-11 03:36:00,39.8,26.2,30.23,NNW,338,0.0,0.0,58,0.00,,---,0.00,VWS V14.01,2013-11-11 10:36:00,
2013-11-11 03:41:00,39.4,27.1,30.22,NNE,22,0.0,0.0,61,0.00,,---,0.00,VWS V14.01,2013-11-11 10:41:00,
2013-11-11 03:46:00,39.6,27.7,30.22,East,90,0.2,0.2,62,0.00,,---,0.00,VWS V14.01,2013-11-11 10:46:00,
2013-11-11 03:51:00,39.6,27.7,30.22,East,90,0.0,0.0,62,0.00,,---,0.00,VWS V14.01,2013-11-11 10:51:00,
2013-11-11 03:56:00,40.1,27.8,30.22,ESE,112,0.0,0.0,61,0.00,,---,0.00,VWS V14.01,2013-11-11 10:56:00,
2013-11-11 04:01:00,40.1,27.4,30.22,ESE,112,0.2,0.2,60,0.00,,---,0.00,VWS V14.01,2013-11-11 11:01:00,
2013-11-11 04:06:00,40.0,26.8,30.22,ESE,112,0.0,0.0,59,0.00,,---,0.00,VWS V14.01,2013-11-11 11:06:00,
2013-11-11 04:11:00,39.8,27.1,30.22,ESE,112,0.0,0.0,60,0.00,,---,0.00,VWS V14.01,2013-11-11 11:11:00,
2013-11-11 04:16:00,39.6,28.1,30.22,ESE,112,1.6,1.6,63,0.00,,---,0.00,VWS V14.01,2013-11-11 11:16:00,
2013-11-11 04:21:00,39.4,27.1,30.22,East,90,0.0,0.0,61,0.00,,---,0.00,VWS V14.01,2013-11-11 11:21:00,
2013-11-11 04:26:00,39.1,27.2,30.22,East,90,0.0,0.0,62,0.00,,---,0.00,VWS V14.01,2013-11-11 11:26:00,
2013-11-11 04:31:00,38.7,26.4,30.22,East,90,0.0,0.0,61,0.00,,---,0.00,VWS V14.01,2013-11-11 11:31:00,
2013-11-11 04:36:00,38.5,26.6,30.22,East,90,0.0,0.0,62,0.00,,---,0.00,VWS V14.01,2013-11-11 11:36:00,
2013-11-11 04:41:00,38.5,27.0,30.22,East,90,0.0,0.0,63,0.00,,---,0.00,VWS V14.01,2013-11-11 11:41:00,
2013-11-11 04:45:00,38.7,27.2,30.22,East,90,0.0,0.0,63,0.00,,---,0.00,VWS V14.01,2013-11-11 11:45:00,
2013-11-11 04:51:00,39.1,27.6,30.22,East,90,0.9,0.9,63,0.00,,---,0.00,VWS V14.01,2013-11-11 11:51:00,
2013-11-11 04:56:00,39.2,27.7,30.22,East,90,0.4,0.4,63,0.00,,---,0.00,VWS V14.01,2013-11-11 11:56:00,
2013-11-11 05:00:00,39.2,27.7,30.22,East,90,0.0,0.0,63,0.00,,---,0.00,VWS V14.01,2013-11-11 12:00:00,
2013-11-11 05:05:00,38.7,26.8,30.23,East,90,0.0,0.0,62,0.00,,---,0.00,VWS V14.01,2013-11-11 12:05:00,
2013-11-11 05:10:00,38.5,27.0,30.23,East,90,0.0,0.0,63,0.00,,---,0.00,VWS V14.01,2013-11-11 12:10:00,
2013-11-11 05:15:00,38.2,26.7,30.23,East,90,0.0,0.0,63,0.00,,---,0.00,VWS V14.01,2013-11-11 12:15:00,
2013-11-11 05:20:00,37.8,27.1,30.23,East,90,0.9,0.9,65,0.00,,---,0.00,VWS V14.01,2013-11-11 12:20:00,
2013-11-11 05:25:00,38.2,27.1,30.23,ESE,112,0.0,0.0,64,0.00,,---,0.00,VWS V14.01,2013-11-11 12:25:00,
2013-11-11 05:30:00,37.8,26.4,30.23,ESE,112,0.0,0.0,63,0.00,,---,0.00,VWS V14.01,2013-11-11 12:30:00,
2013-11-11 05:35:00,37.1,25.3,30.23,ESE,112,0.0,0.0,62,0.00,,---,0.00,VWS V14.01,2013-11-11 12:35:00,
2013-11-11 05:40:00,37.1,25.7,30.24,ESE,112,0.0,0.0,63,0.00,,---,0.00,VWS V14.01,2013-11-11 12:40:00,
2013-11-11 05:45:00,37.1,26.4,30.24,ESE,112,0.0,0.0,65,0.00,,---,0.00,VWS V14.01,2013-11-11 12:45:00,
2013-11-11 05:50:00,37.1,26.1,30.24,ESE,112,0.0,0.0,64,0.00,,---,0.00,VWS V14.01,2013-11-11 12:50:00,
2013-11-11 05:55:00,37.1,26.4,30.24,ENE,68,1.1,1.1,65,0.00,,---,0.00,VWS V14.01,2013-11-11 12:55:00,
2013-11-11 06:00:00,37.3,27.4,30.24,ESE,112,0.4,0.4,67,0.00,,---,0.00,VWS V14.01,2013-11-11 13:00:00,
2013-11-11 06:05:00,37.4,27.5,30.24,ESE,112,0.2,0.2,67,0.00,,---,0.24,VWS V14.01,2013-11-11 13:05:00,
2013-11-11 06:10:00,37.3,26.6,30.24,ESE,112,0.0,0.0,65,0.00,,---,0.00,VWS V14.01,2013-11-11 13:10:00,
2013-11-11 06:15:00,37.1,27.2,30.24,ESE,112,0.4,0.4,67,0.00,,---,0.00,VWS V14.01,2013-11-11 13:15:00,
2013-11-11 06:20:00,37.3,27.4,30.24,ESE,112,0.0,0.0,67,0.00,,---,0.00,VWS V14.01,2013-11-11 13:20:00,
2013-11-11 06:25:00,37.6,27.3,30.24,ESE,112,0.0,0.0,66,0.00,,---,0.00,VWS V14.01,2013-11-11 13:25:00,
2013-11-11 06:30:00,37.1,26.1,30.24,ESE,112,0.0,0.0,64,0.00,,---,0.00,VWS V14.01,2013-11-11 13:30:00,
2013-11-11 06:35:00,36.5,25.1,30.24,ESE,112,0.0,0.0,63,0.00,,---,0.00,VWS V14.01,2013-11-11 13:35:00,
2013-11-11 06:40:00,36.4,25.4,30.24,ESE,112,0.0,0.0,64,0.00,,---,0.00,VWS V14.01,2013-11-11 13:40:00,
2013-11-11 06:45:00,36.2,25.6,30.24,East,90,0.0,0.0,65,0.00,,---,0.00,VWS V14.01,2013-11-11 13:45:00,
2013-11-11 06:50:00,36.4,26.5,30.25,East,90,0.0,0.0,67,0.00,,---,0.00,VWS V14.01,2013-11-11 13:50:00,
2013-11-11 06:55:00,36.4,26.5,30.25,East,90,0.0,0.0,67,0.00,,---,0.00,VWS V14.01,2013-11-11 13:55:00,
2013-11-11 07:00:00,36.4,27.2,30.25,East,90,0.0,0.0,69,0.00,,---,0.00,VWS V14.01,2013-11-11 14:00:00,
2013-11-11 07:05:00,37.3,27.4,30.25,East,90,0.0,0.0,67,0.00,,---,0.00,VWS V14.01,2013-11-11 14:05:00,
2013-11-11 07:10:00,39.6,29.2,30.26,East,90,0.0,0.0,66,0.00,,---,0.00,VWS V14.01,2013-11-11 14:10:00,
2013-11-11 07:16:00,42.8,31.1,30.26,East,90,0.2,0.2,63,0.00,,---,0.00,VWS V14.01,2013-11-11 14:16:00,
2013-11-11 07:21:00,44.8,30.9,30.27,East,90,0.0,0.0,58,0.00,,---,0.00,VWS V14.01,2013-11-11 14:21:00,
2013-11-11 07:26:00,46.4,31.6,30.27,East,90,0.0,0.0,56,0.00,,---,0.00,VWS V14.01,2013-11-11 14:26:00,
2013-11-11 07:31:00,47.7,31.9,30.27,NNE,22,0.0,0.0,54,0.00,,---,0.00,VWS V14.01,2013-11-11 14:31:00,
2013-11-11 07:36:00,48.6,31.8,30.28,NE,45,0.0,0.0,52,0.00,,---,0.00,VWS V14.01,2013-11-11 14:36:00,
2013-11-11 07:41:00,49.7,31.8,30.28,NE,45,0.2,0.2,50,0.00,,---,0.00,VWS V14.01,2013-11-11 14:41:00,
2013-11-11 07:45:00,50.9,30.9,30.28,ENE,68,0.7,0.7,46,0.00,,---,0.00,VWS V14.01,2013-11-11 14:45:00,
2013-11-11 07:50:00,51.3,29.6,30.28,East,90,1.1,1.1,43,0.00,,---,0.00,VWS V14.01,2013-11-11 14:50:00,
2013-11-11 07:55:00,50.6,29.5,30.28,ESE,112,0.7,0.7,44,0.00,,---,0.00,VWS V14.01,2013-11-11 14:55:00,
2013-11-11 08:00:00,50.2,29.1,30.28,SSE,158,0.0,0.0,44,0.00,,---,0.00,VWS V14.01,2013-11-11 15:00:00,
2013-11-11 08:05:00,49.0,29.1,30.28,SE,135,0.0,0.0,46,0.00,,---,0.00,VWS V14.01,2013-11-11 15:05:00,
2013-11-11 08:10:00,48.1,28.8,30.28,SSE,158,0.2,0.2,47,0.00,,---,0.00,VWS V14.01,2013-11-11 15:10:00,
2013-11-11 08:15:00,47.9,28.7,30.28,SE,135,0.4,0.4,47,0.00,,---,0.00,VWS V14.01,2013-11-11 15:15:00,
2013-11-11 08:20:00,47.7,29.0,30.28,SSE,158,0.0,0.0,48,0.00,,---,0.00,VWS V14.01,2013-11-11 15:20:00,
2013-11-11 08:25:00,47.9,29.2,30.28,SSE,158,0.0,0.0,48,0.00,,---,0.00,VWS V14.01,2013-11-11 15:25:00,
2013-11-11 08:30:00,49.0,30.2,30.28,SSE,158,0.0,0.0,48,0.00,,---,0.00,VWS V14.01,2013-11-11 15:30:00,
2013-11-11 08:35:00,49.9,30.5,30.28,SSE,158,0.0,0.0,47,0.00,,---,0.00,VWS V14.01,2013-11-11 15:35:00,
2013-11-11 08:40:00,49.7,29.2,30.28,SSE,158,0.0,0.0,45,0.00,,---,0.00,VWS V14.01,2013-11-11 15:40:00,
2013-11-11 08:45:00,51.1,30.0,30.28,ENE,68,0.2,0.2,44,0.00,,---,0.00,VWS V14.01,2013-11-11 15:45:00,
2013-11-11 08:50:00,53.1,30.0,30.28,SW,225,0.4,0.4,41,0.00,,---,0.00,VWS V14.01,2013-11-11 15:50:00,
2013-11-11 08:55:00,54.2,32.2,30.28,SSW,202,0.0,0.0,43,0.00,,---,0.00,VWS V14.01,2013-11-11 15:55:00,
2013-11-11 09:00:00,54.4,31.8,30.28,SW,225,0.0,0.0,42,0.00,,---,0.00,VWS V14.01,2013-11-11 16:00:00,
2013-11-11 09:05:00,53.5,29.8,30.28,WNW,292,1.6,1.6,40,0.00,,---,0.00,VWS V14.01,2013-11-11 16:05:00,
2013-11-11 09:10:00,53.5,29.8,30.28,SSW,202,0.9,0.9,40,0.00,,---,0.00,VWS V14.01,2013-11-11 16:10:00,
2013-11-11 09:15:00,53.1,29.4,30.28,West,270,2.2,2.2,40,0.00,,---,0.00,VWS V14.01,2013-11-11 16:15:00,
2013-11-11 09:20:00,52.6,29.6,30.28,North,0,0.2,0.2,41,0.00,,---,0.00,VWS V14.01,2013-11-11 16:20:00,
2013-11-11 09:25:00,53.3,29.6,30.28,NW,315,1.8,1.8,40,0.00,,---,0.00,VWS V14.01,2013-11-11 16:25:00,
2013-11-11 09:30:00,53.5,29.2,30.28,West,270,0.2,0.2,39,0.00,,---,0.00,VWS V14.01,2013-11-11 16:30:00,
2013-11-11 09:35:00,53.6,29.3,30.28,West,270,1.8,1.8,39,0.00,,---,0.00,VWS V14.01,2013-11-11 16:35:00,
2013-11-11 09:40:00,54.2,30.4,30.28,ENE,68,0.4,0.4,40,0.00,,---,0.00,VWS V14.01,2013-11-11 16:40:00,
2013-11-11 09:45:00,55.8,31.2,30.28,WNW,292,0.9,0.9,39,0.00,,---,0.00,VWS V14.01,2013-11-11 16:45:00,
2013-11-11 09:50:00,55.6,30.4,30.28,NNE,22,0.9,0.9,38,0.00,,---,0.00,VWS V14.01,2013-11-11 16:50:00,
2013-11-11 09:55:00,55.8,29.3,30.28,SSW,202,0.7,0.7,36,0.00,,---,0.00,VWS V14.01,2013-11-11 16:55:00,
2013-11-11 10:00:00,55.6,29.1,30.28,SW,225,1.8,1.8,36,0.00,,---,0.00,VWS V14.01,2013-11-11 17:00:00,
2013-11-11 10:05:00,55.4,28.9,30.28,SW,225,0.9,0.9,36,0.00,,---,0.00,VWS V14.01,2013-11-11 17:05:00,
2013-11-11 10:10:00,56.0,29.4,30.28,SSW,202,0.9,0.9,36,0.00,,---,0.00,VWS V14.01,2013-11-11 17:10:00,
2013-11-11 10:15:00,56.7,30.1,30.28,South,180,0.2,0.2,36,0.00,,---,0.00,VWS V14.01,2013-11-11 17:15:00,
2013-11-11 10:20:00,56.9,29.5,30.28,West,270,1.1,1.1,35,0.00,,---,0.00,VWS V14.01,2013-11-11 17:20:00,
2013-11-11 10:25:00,57.1,30.4,30.28,NW,315,1.3,1.3,36,0.00,,---,0.00,VWS V14.01,2013-11-11 17:25:00,
2013-11-11 10:30:00,57.2,31.2,30.28,NE,45,1.1,1.1,37,0.00,,---,0.00,VWS V14.01,2013-11-11 17:30:00,
2013-11-11 10:35:00,57.6,30.9,30.28,North,0,1.8,1.8,36,0.00,,---,0.00,VWS V14.01,2013-11-11 17:35:00,
2013-11-11 10:40:00,58.1,31.3,30.27,North,0,0.9,0.9,36,0.00,,---,0.00,VWS V14.01,2013-11-11 17:40:00,
2013-11-11 10:45:00,58.5,30.2,30.28,NNW,338,2.0,2.0,34,0.00,,---,0.00,VWS V14.01,2013-11-11 17:45:00,
2013-11-11 10:50:00,58.0,29.8,30.27,SW,225,2.2,2.2,34,0.00,,---,0.00,VWS V14.01,2013-11-11 17:50:00,
2013-11-11 10:55:00,57.8,30.4,30.27,NNE,22,2.5,2.5,35,0.00,,---,0.00,VWS V14.01,2013-11-11 17:55:00,
2013-11-11 11:00:00,58.1,29.9,30.27,North,0,4.7,4.7,34,0.00,,---,0.00,VWS V14.01,2013-11-11 18:00:00,
2013-11-11 11:05:00,58.9,30.6,30.27,NW,315,1.3,1.3,34,0.00,,---,0.00,VWS V14.01,2013-11-11 18:05:00,
2013-11-11 11:10:00,59.0,30.7,30.27,SW,225,2.0,2.0,34,0.00,,---,0.00,VWS V14.01,2013-11-11 18:10:00,
2013-11-11 11:15:00,59.2,30.9,30.27,North,0,1.8,1.8,34,0.00,,---,0.00,VWS V14.01,2013-11-11 18:15:00,
2013-11-11 11:20:00,59.4,30.3,30.27,NW,315,3.8,3.8,33,0.00,,---,0.00,VWS V14.01,2013-11-11 18:20:00,
2013-11-11 11:25:00,59.2,30.1,30.27,NW,315,1.8,1.8,33,0.00,,---,0.00,VWS V14.01,2013-11-11 18:25:00,
2013-11-11 11:30:00,59.4,31.0,30.26,North,0,1.3,1.3,34,0.00,,---,0.00,VWS V14.01,2013-11-11 18:30:00,
2013-11-11 11:35:00,59.8,29.9,30.26,NE,45,1.6,1.6,32,0.00,,---,0.00,VWS V14.01,2013-11-11 18:35:00,
2013-11-11 11:40:00,59.9,30.0,30.26,North,0,2.7,2.7,32,0.00,,---,0.00,VWS V14.01,2013-11-11 18:40:00,
2013-11-11 11:45:00,60.1,30.2,30.26,NNE,22,3.4,3.4,32,0.00,,---,0.00,VWS V14.01,2013-11-11 18:45:00,
2013-11-11 11:50:00,60.7,30.7,30.26,NNW,338,4.0,4.0,32,0.00,,---,0.00,VWS V14.01,2013-11-11 18:50:00,
2013-11-11 11:55:00,60.8,30.0,30.26,NNW,338,1.1,3.4,31,0.00,,---,0.00,VWS V14.01,2013-11-11 18:55:00,
2013-11-11 12:00:00,61.0,30.2,30.26,NNE,22,2.2,2.2,31,0.00,,---,0.00,VWS V14.01,2013-11-11 19:00:00,
2013-11-11 12:05:00,61.6,29.9,30.25,North,0,2.5,2.5,30,0.00,,---,0.00,VWS V14.01,2013-11-11 19:05:00,
2013-11-11 12:10:00,61.7,28.3,30.25,NNW,338,3.4,3.4,28,0.00,,---,0.00,VWS V14.01,2013-11-11 19:10:00,
2013-11-11 12:15:00,61.9,27.6,30.25,NNW,338,3.8,3.8,27,0.00,,---,0.00,VWS V14.01,2013-11-11 19:15:00,
2013-11-11 12:20:00,62.3,27.0,30.25,North,0,1.6,1.6,26,0.00,,---,0.00,VWS V14.01,2013-11-11 19:20:00,
2013-11-11 12:25:00,62.5,26.2,30.25,NW,315,4.7,4.7,25,0.00,,---,0.00,VWS V14.01,2013-11-11 19:25:00,
2013-11-11 12:30:00,62.5,26.2,30.24,NW,315,2.0,2.0,25,0.00,,---,0.00,VWS V14.01,2013-11-11 19:30:00,
2013-11-11 12:35:00,62.8,26.5,30.24,North,0,1.3,1.3,25,0.00,,---,0.00,VWS V14.01,2013-11-11 19:35:00,
2013-11-11 12:40:00,63.5,25.1,30.24,NNW,338,2.9,2.9,23,0.00,,---,0.00,VWS V14.01,2013-11-11 19:40:00,
2013-11-11 12:45:00,63.4,23.9,30.24,SSE,158,1.8,1.8,22,0.00,,---,0.00,VWS V14.01,2013-11-11 19:45:00,
2013-11-11 12:50:00,63.4,25.0,30.23,NNE,22,3.6,3.6,23,0.00,,---,0.00,VWS V14.01,2013-11-11 19:50:00,
2013-11-11 12:55:00,63.5,25.1,30.23,NNW,338,2.9,2.9,23,0.00,,---,0.00,VWS V14.01,2013-11-11 19:55:00,
2013-11-11 13:00:00,64.1,25.6,30.23,NNW,338,1.1,1.1,23,0.00,,---,0.00,VWS V14.01,2013-11-11 20:00:00,
2013-11-11 13:05:00,64.4,24.8,30.23,NNW,338,3.6,3.6,22,0.00,,---,0.00,VWS V14.01,2013-11-11 20:05:00,
2013-11-11 13:10:00,64.4,25.8,30.23,NW,315,2.5,2.5,23,0.00,,---,0.00,VWS V14.01,2013-11-11 20:10:00,
2013-11-11 13:15:00,64.6,24.9,30.22,North,0,3.1,3.1,22,0.00,,---,0.00,VWS V14.01,2013-11-11 20:15:00,
2013-11-11 13:20:00,65.9,26.0,30.22,North,0,2.5,2.5,22,0.00,,---,0.00,VWS V14.01,2013-11-11 20:20:00,
2013-11-11 13:25:00,66.1,25.1,30.22,NNE,22,4.9,4.9,21,0.00,,---,0.00,VWS V14.01,2013-11-11 20:25:00,
2013-11-11 13:30:00,65.3,24.4,30.22,North,0,4.0,4.0,21,0.00,,---,0.00,VWS V14.01,2013-11-11 20:30:00,
2013-11-11 13:35:00,65.9,24.9,30.22,NW,315,2.9,2.9,21,0.00,,---,0.00,VWS V14.01,2013-11-11 20:35:00,
2013-11-11 13:40:00,65.9,22.5,30.22,NW,315,2.7,2.7,19,0.00,,---,0.00,VWS V14.01,2013-11-11 20:40:00,
2013-11-11 13:45:00,65.7,24.7,30.22,NW,315,2.0,2.0,21,0.00,,---,0.00,VWS V14.01,2013-11-11 20:45:00,
2013-11-11 13:50:00,65.9,22.5,30.22,NW,315,3.4,3.4,19,0.00,,---,0.00,VWS V14.01,2013-11-11 20:50:00,
2013-11-11 13:55:00,67.1,23.5,30.22,WNW,292,4.3,4.3,19,0.00,,---,0.00,VWS V14.01,2013-11-11 20:55:00,
2013-11-11 14:00:00,67.3,23.7,30.21,NNE,22,3.1,3.1,19,0.00,,---,0.00,VWS V14.01,2013-11-11 21:00:00,
2013-11-11 14:05:00,67.0,22.1,30.21,NW,315,3.6,3.6,18,0.00,,---,0.00,VWS V14.01,2013-11-11 21:05:00,
2013-11-11 14:10:00,66.6,21.8,30.21,North,0,6.3,6.3,18,0.00,,---,0.00,VWS V14.01,2013-11-11 21:10:00,
2013-11-11 14:15:00,66.6,23.1,30.21,NW,315,3.4,3.4,19,0.00,,---,0.00,VWS V14.01,2013-11-11 21:15:00,
2013-11-11 14:20:00,67.0,23.4,30.22,NNW,338,3.1,3.1,19,0.00,,---,0.00,VWS V14.01,2013-11-11 21:20:00,
2013-11-11 14:25:00,66.8,23.2,30.21,NNW,338,4.9,4.9,19,0.00,,---,0.00,VWS V14.01,2013-11-11 21:25:00,
2013-11-11 14:30:00,66.8,23.2,30.21,NNW,338,2.2,2.2,19,0.00,,---,0.00,VWS V14.01,2013-11-11 21:30:00,
2013-11-11 14:35:00,66.8,23.2,30.21,NNW,338,4.3,4.3,19,0.00,,---,0.00,VWS V14.01,2013-11-11 21:35:00,
2013-11-11 14:40:00,67.3,22.4,30.21,NW,315,3.8,3.8,18,0.00,,---,0.00,VWS V14.01,2013-11-11 21:40:00,
2013-11-11 14:45:00,67.5,23.8,30.21,NNE,22,3.4,3.4,19,0.00,,---,0.00,VWS V14.01,2013-11-11 21:45:00,
2013-11-11 14:50:00,68.0,23.0,30.21,NW,315,5.6,5.6,18,0.00,,---,0.00,VWS V14.01,2013-11-11 21:50:00,
2013-11-11 14:55:00,67.5,23.8,30.21,ENE,68,4.3,4.3,19,0.00,,---,0.00,VWS V14.01,2013-11-11 21:55:00,
2013-11-11 15:00:00,67.3,23.7,30.21,North,0,2.5,2.5,19,0.00,,---,0.00,VWS V14.01,2013-11-11 22:00:00,
2013-11-11 15:05:00,68.0,23.0,30.21,NNW,338,3.6,3.6,18,0.00,,---,0.00,VWS V14.01,2013-11-11 22:05:00,
2013-11-11 15:10:00,68.2,24.4,30.21,NNE,22,2.7,2.7,19,0.00,,---,0.00,VWS V14.01,2013-11-11 22:10:00,
2013-11-11 15:15:00,68.8,23.6,30.21,NNE,22,2.7,2.7,18,0.00,,---,0.00,VWS V14.01,2013-11-11 22:15:00,
2013-11-11 15:20:00,69.8,23.1,30.21,NW,315,4.3,4.3,17,0.00,,---,0.00,VWS V14.01,2013-11-11 22:20:00,
2013-11-11 15:25:00,70.9,24.0,30.21,NE,45,4.7,4.7,17,0.00,,---,0.00,VWS V14.01,2013-11-11 22:25:00,
2013-11-11 15:30:00,71.5,24.4,30.21,North,0,3.4,3.4,17,0.00,,---,0.00,VWS V14.01,2013-11-11 22:30:00,
2013-11-11 15:35:00,71.3,24.3,30.21,North,0,2.7,2.7,17,0.00,,---,0.00,VWS V14.01,2013-11-11 22:35:00,
2013-11-11 15:40:00,71.1,22.7,30.21,NNW,338,5.4,5.4,16,0.00,,---,0.00,VWS V14.01,2013-11-11 22:40:00,
2013-11-11 15:45:00,71.3,24.3,30.21,NE,45,1.8,1.8,17,0.00,,---,0.00,VWS V14.01,2013-11-11 22:45:00,
2013-11-11 15:50:00,71.3,24.3,30.21,NW,315,1.3,1.3,17,0.00,,---,0.00,VWS V14.01,2013-11-11 22:50:00,
2013-11-11 15:55:00,71.6,24.5,30.21,NW,315,2.5,3.1,17,0.00,,---,0.00,VWS V14.01,2013-11-11 22:55:00,
2013-11-11 16:00:00,71.3,24.3,30.21,NNW,338,2.5,2.5,17,0.00,,---,0.00,VWS V14.01,2013-11-11 23:00:00,
2013-11-11 16:05:00,70.2,23.4,30.21,NNE,22,2.0,2.0,17,0.00,,---,0.00,VWS V14.01,2013-11-11 23:05:00,
2013-11-11 16:10:00,69.5,22.8,30.21,North,0,3.4,3.4,17,0.00,,---,0.00,VWS V14.01,2013-11-11 23:10:00,
2013-11-11 16:15:00,68.0,23.0,30.21,North,0,1.1,1.1,18,0.00,,---,0.00,VWS V14.01,2013-11-11 23:15:00,
2013-11-11 16:20:00,67.3,23.7,30.21,NE,45,3.6,3.6,19,0.00,,---,0.00,VWS V14.01,2013-11-11 23:20:00,
2013-11-11 16:25:00,66.8,23.2,30.21,North,0,1.8,1.8,19,0.00,,---,0.00,VWS V14.01,2013-11-11 23:25:00,
2013-11-11 16:30:00,66.6,23.1,30.21,NE,45,1.1,1.1,19,0.00,,---,0.00,VWS V14.01,2013-11-11 23:30:00,
2013-11-11 16:35:00,66.2,22.8,30.21,North,0,1.8,1.8,19,0.00,,---,0.00,VWS V14.01,2013-11-11 23:35:00,
2013-11-11 16:40:00,66.1,22.7,30.22,North,0,1.3,1.3,19,0.00,,---,0.00,VWS V14.01,2013-11-11 23:40:00,
2013-11-11 16:45:00,65.7,23.6,30.22,NE,45,1.8,1.8,20,0.00,,---,0.00,VWS V14.01,2013-11-11 23:45:00,
2013-11-11 16:50:00,65.3,24.4,30.21,NNE,22,1.8,1.8,21,0.00,,---,0.00,VWS V14.01,2013-11-11 23:50:00,
2013-11-11 16:55:00,65.0,24.1,30.21,NNE,22,1.1,1.1,21,0.00,,---,0.00,VWS V14.01,2013-11-11 23:55:00,
2013-11-11 17:00:00,64.6,23.8,30.21,ENE,68,1.6,1.6,21,0.00,,---,0.00,VWS V14.01,2013-11-12 00:00:00,
2013-11-11 17:05:00,64.3,23.6,30.22,ENE,68,0.7,0.7,21,0.00,,---,0.00,VWS V14.01,2013-11-12 00:05:00,
2013-11-11 17:10:00,63.9,24.3,30.22,ENE,68,0.4,0.4,22,0.00,,---,0.00,VWS V14.01,2013-11-12 00:10:00,
2013-11-11 17:15:00,63.0,23.6,30.22,ENE,68,0.7,0.7,22,0.00,,---,0.00,VWS V14.01,2013-11-12 00:15:00,
2013-11-11 17:20:00,63.0,23.6,30.22,East,90,0.9,0.9,22,0.00,,---,0.00,VWS V14.01,2013-11-12 00:20:00,
2013-11-11 17:25:00,62.8,23.4,30.22,East,90,1.1,1.1,22,0.00,,---,0.00,VWS V14.01,2013-11-12 00:25:00,
2013-11-11 17:30:00,62.6,23.2,30.22,ESE,112,1.8,1.8,22,0.00,,---,0.00,VWS V14.01,2013-11-12 00:30:00,
2013-11-11 17:35:00,62.5,23.2,30.22,ESE,112,1.6,1.6,22,0.00,,---,0.00,VWS V14.01,2013-11-12 00:35:00,
2013-11-11 17:40:00,61.9,22.7,30.22,East,90,2.0,2.0,22,0.00,,---,0.00,VWS V14.01,2013-11-12 00:40:00,
2013-11-11 17:45:00,61.6,21.3,30.22,East,90,1.1,1.1,21,0.00,,---,0.00,VWS V14.01,2013-11-12 00:45:00,
2013-11-11 17:50:00,61.2,21.0,30.23,ENE,68,2.9,2.9,21,0.00,,---,0.00,VWS V14.01,2013-11-12 00:50:00,
2013-11-11 17:55:00,60.8,20.6,30.23,East,90,2.0,2.0,21,0.00,,---,0.00,VWS V14.01,2013-11-12 00:55:00,
2013-11-11 18:00:00,60.5,20.4,30.23,East,90,2.2,2.2,21,0.00,,---,0.00,VWS V14.01,2013-11-12 01:00:00,
2013-11-11 18:05:00,60.1,21.1,30.23,East,90,1.8,1.8,22,0.00,,---,0.00,VWS V14.01,2013-11-12 01:05:00,
2013-11-11 18:10:00,59.8,20.9,30.23,East,90,1.6,1.6,22,0.00,,---,0.00,VWS V14.01,2013-11-12 01:10:00,
2013-11-11 18:15:00,59.4,20.6,30.23,East,90,1.1,1.1,22,0.00,,---,0.00,VWS V14.01,2013-11-12 01:15:00,
2013-11-11 18:20:00,59.0,21.3,30.23,East,90,0.0,0.0,23,0.00,,---,0.00,VWS V14.01,2013-11-12 01:20:00,
2013-11-11 18:25:00,58.1,20.5,30.23,East,90,0.0,0.0,23,0.00,,---,0.00,VWS V14.01,2013-11-12 01:25:00,
2013-11-11 18:30:00,57.2,20.8,30.24,East,90,0.2,0.2,24,0.00,,---,0.00,VWS V14.01,2013-11-12 01:30:00,
2013-11-11 18:35:00,56.3,21.0,30.24,East,90,0.0,0.0,25,0.00,,---,0.00,VWS V14.01,2013-11-12 01:35:00,
2013-11-11 18:40:00,55.4,20.2,30.24,East,90,0.0,0.0,25,0.00,,---,0.00,VWS V14.01,2013-11-12 01:40:00,
2013-11-11 18:45:00,55.1,19.9,30.24,East,90,0.0,0.0,25,0.00,,---,0.00,VWS V14.01,2013-11-12 01:45:00,
2013-11-11 18:50:00,54.7,21.4,30.24,East,90,0.0,0.0,27,0.00,,---,0.00,VWS V14.01,2013-11-12 01:50:00,
2013-11-11 18:55:00,54.2,21.0,30.25,East,90,0.0,0.0,27,0.00,,---,0.00,VWS V14.01,2013-11-12 01:55:00,
2013-11-11 19:00:00,53.6,20.5,30.25,East,90,0.0,0.0,27,0.00,,---,0.00,VWS V14.01,2013-11-12 02:00:00,
2013-11-11 19:05:00,53.1,20.9,30.25,ENE,68,0.0,0.0,28,0.00,,---,0.00,VWS V14.01,2013-11-12 02:05:00,
2013-11-11 19:10:00,53.3,21.0,30.25,ENE,68,0.0,0.0,28,0.00,,---,0.00,VWS V14.01,2013-11-12 02:10:00,
2013-11-11 19:15:00,52.9,20.7,30.25,ENE,68,0.0,0.0,28,0.00,,---,0.00,VWS V14.01,2013-11-12 02:15:00,
2013-11-11 19:20:00,53.5,22.0,30.25,East,90,0.9,0.9,29,0.00,,---,0.00,VWS V14.01,2013-11-12 02:20:00,
2013-11-11 19:25:00,53.3,21.9,30.25,East,90,2.0,2.0,29,0.00,,---,0.00,VWS V14.01,2013-11-12 02:25:00,
2013-11-11 19:30:00,54.4,22.0,30.25,ESE,112,0.4,0.4,28,0.00,,---,0.00,VWS V14.01,2013-11-12 02:30:00,
2013-11-11 19:35:00,54.0,21.6,30.25,ENE,68,2.5,2.5,28,0.00,,---,0.00,VWS V14.01,2013-11-12 02:35:00,
2013-11-11 19:40:00,54.4,22.0,30.25,NNE,22,2.2,2.2,28,0.00,,---,0.00,VWS V14.01,2013-11-12 02:40:00,
2013-11-11 19:45:00,54.5,22.1,30.25,NE,45,1.3,1.3,28,0.00,,---,0.00,VWS V14.01,2013-11-12 02:45:00,
2013-11-11 19:50:00,54.5,22.1,30.25,NE,45,0.9,0.9,28,0.00,,---,0.00,VWS V14.01,2013-11-12 02:50:00,
2013-11-11 19:55:00,54.2,21.8,30.25,NNE,22,0.7,0.7,28,0.00,,---,0.00,VWS V14.01,2013-11-12 02:55:00,
2013-11-11 20:00:00,53.6,22.1,30.25,ENE,68,1.8,1.8,29,0.00,,---,0.00,VWS V14.01,2013-11-12 03:00:00,
2013-11-11 20:05:00,53.6,22.1,30.26,ESE,112,1.1,1.1,29,0.00,,---,0.00,VWS V14.01,2013-11-12 03:05:00,
2013-11-11 20:10:00,53.6,22.1,30.26,ESE,112,0.0,0.0,29,0.00,,---,0.00,VWS V14.01,2013-11-12 03:10:00,
2013-11-11 20:15:00,52.9,22.3,30.26,ESE,112,0.0,0.0,30,0.00,,---,0.00,VWS V14.01,2013-11-12 03:15:00,
2013-11-11 20:20:00,52.4,21.9,30.26,ESE,112,0.4,0.4,30,0.00,,---,0.00,VWS V14.01,2013-11-12 03:20:00,
2013-11-11 20:25:00,52.2,22.5,30.26,East,90,1.6,1.6,31,0.00,,---,0.00,VWS V14.01,2013-11-12 03:25:00,
2013-11-11 20:30:00,51.5,21.9,30.26,ESE,112,0.9,0.9,31,0.00,,---,0.00,VWS V14.01,2013-11-12 03:30:00,
2013-11-11 20:35:00,51.5,22.6,30.26,ESE,112,0.4,0.9,32,0.00,,---,0.00,VWS V14.01,2013-11-12 03:35:00,
2013-11-11 20:40:00,51.1,22.3,30.27,ESE,112,0.0,0.2,32,0.00,,---,0.00,VWS V14.01,2013-11-12 03:40:00,
2013-11-11 20:45:00,50.8,22.0,30.27,ESE,112,0.0,0.0,32,0.00,,---,0.00,VWS V14.01,2013-11-12 03:45:00,
2013-11-11 20:50:00,50.0,22.0,30.27,SSW,202,0.0,0.0,33,0.00,,---,0.00,VWS V14.01,2013-11-12 03:50:00,
2013-11-11 20:55:00,49.7,21.1,30.27,SSW,202,0.0,0.0,32,0.00,,---,0.00,VWS V14.01,2013-11-12 03:55:00,
2013-11-11 21:00:00,49.1,22.0,30.28,SSW,202,0.0,0.0,34,0.00,,---,0.00,VWS V14.01,2013-11-12 04:00:00,
2013-11-11 21:05:00,48.6,21.5,30.28,SE,135,0.0,0.0,34,0.00,,---,0.00,VWS V14.01,2013-11-12 04:05:00,
2013-11-11 21:10:00,49.0,21.9,30.28,SE,135,0.4,0.4,34,0.00,,---,0.00,VWS V14.01,2013-11-12 04:10:00,
2013-11-11 21:15:00,49.3,22.1,30.28,SE,135,0.0,0.0,34,0.00,,---,0.00,VWS V14.01,2013-11-12 04:15:00,
2013-11-11 21:20:00,49.5,22.3,30.28,ENE,68,0.7,0.7,34,0.00,,---,0.00,VWS V14.01,2013-11-12 04:20:00,
2013-11-11 21:25:00,49.5,21.6,30.28,North,0,0.4,0.4,33,0.00,,---,0.00,VWS V14.01,2013-11-12 04:25:00,
2013-11-11 21:30:00,49.7,21.8,30.29,NNE,22,1.8,1.8,33,0.00,,---,0.00,VWS V14.01,2013-11-12 04:30:00,
2013-11-11 21:35:00,50.0,22.0,30.29,NNE,22,0.4,0.4,33,0.00,,---,0.00,VWS V14.01,2013-11-12 04:35:00,
2013-11-11 21:40:00,50.8,22.0,30.29,NE,45,1.8,1.8,32,0.00,,---,0.00,VWS V14.01,2013-11-12 04:40:00,
2013-11-11 21:45:00,51.8,22.1,30.29,NE,45,3.1,3.1,31,0.00,,---,0.00,VWS V14.01,2013-11-12 04:45:00,
2013-11-11 21:50:00,52.2,22.5,30.29,ENE,68,3.4,3.4,31,0.00,,---,0.00,VWS V14.01,2013-11-12 04:50:00,
2013-11-11 21:55:00,52.2,22.5,30.29,ENE,68,3.6,3.6,31,0.00,,---,0.00,VWS V14.01,2013-11-12 04:55:00,
2013-11-11 22:00:00,52.0,22.3,30.29,NE,45,2.2,2.2,31,0.00,,---,0.00,VWS V14.01,2013-11-12 05:00:00,
2013-11-11 22:01:00,52.0,22.3,30.29,NE,45,2.2,2.2,31,0.00,,---,0.00,VWS V14.01,2013-11-12 05:01:00,
2013-11-11 22:06:00,51.7,22.1,30.30,NE,45,1.3,1.3,31,0.00,,---,0.00,VWS V14.01,2013-11-12 05:06:00,
2013-11-11 22:11:00,51.5,21.9,30.30,NE,45,0.2,0.2,31,0.00,,---,0.00,VWS V14.01,2013-11-12 05:11:00,
2013-11-11 22:16:00,51.3,21.7,30.30,NE,45,0.0,0.0,31,0.00,,---,0.00,VWS V14.01,2013-11-12 05:16:00,
2013-11-11 22:21:00,50.6,21.9,30.30,NE,45,0.0,0.0,32,0.00,,---,0.00,VWS V14.01,2013-11-12 05:21:00,
2013-11-11 22:26:00,50.0,21.3,30.30,NE,45,0.0,0.0,32,0.00,,---,0.00,VWS V14.01,2013-11-12 05:26:00,
2013-11-11 22:31:00,49.3,21.4,30.30,NE,45,0.0,0.0,33,0.00,,---,0.00,VWS V14.01,2013-11-12 05:31:00,
2013-11-11 22:36:00,48.8,21.7,30.30,NNE,22,0.0,0.0,34,0.00,,---,0.00,VWS V14.01,2013-11-12 05:36:00,
2013-11-11 22:41:00,48.1,22.4,30.30,SSE,158,0.7,0.7,36,0.00,,---,0.00,VWS V14.01,2013-11-12 05:41:00,
2013-11-11 22:46:00,47.9,23.5,30.31,South,180,0.4,0.4,38,0.00,,---,0.00,VWS V14.01,2013-11-12 05:46:00,
2013-11-11 22:51:00,47.9,23.5,30.31,SSW,202,0.4,0.4,38,0.00,,---,0.00,VWS V14.01,2013-11-12 05:51:00,
2013-11-11 22:56:00,47.9,23.5,30.31,SW,225,1.3,1.3,38,0.00,,---,0.00,VWS V14.01,2013-11-12 05:56:00,
2013-11-11 23:01:00,48.2,22.5,30.31,SW,225,2.7,2.7,36,0.00,,---,0.00,VWS V14.01,2013-11-12 06:01:00,
2013-11-11 23:06:00,49.1,22.6,30.32,SW,225,2.2,2.2,35,0.00,,---,0.00,VWS V14.01,2013-11-12 06:06:00,
2013-11-11 23:11:00,49.0,22.6,30.31,WSW,248,3.8,3.8,35,0.00,,---,0.24,VWS V14.01,2013-11-12 06:11:00,
2013-11-11 23:16:00,49.0,23.2,30.32,SE,135,0.0,0.0,36,0.00,,---,0.00,VWS V14.01,2013-11-12 06:16:00,
2013-11-11 23:21:00,49.3,22.1,30.32,SSW,202,2.5,2.5,34,0.00,,---,0.00,VWS V14.01,2013-11-12 06:21:00,
2013-11-11 23:26:00,50.0,22.8,30.32,ESE,112,1.6,1.6,34,0.00,,---,0.00,VWS V14.01,2013-11-12 06:26:00,
2013-11-11 23:31:00,49.1,22.0,30.32,NNE,22,0.0,0.0,34,0.00,,---,0.00,VWS V14.01,2013-11-12 06:31:00,
2013-11-11 23:36:00,48.1,23.1,30.32,NW,315,2.7,2.7,37,0.00,,---,0.00,VWS V14.01,2013-11-12 06:36:00,
2013-11-11 23:41:00,47.9,22.9,30.31,WNW,292,2.5,2.5,37,0.00,,---,0.00,VWS V14.01,2013-11-12 06:41:00,
2013-11-11 23:46:00,47.3,23.0,30.31,ENE,68,1.1,1.1,38,0.00,,---,0.00,VWS V14.01,2013-11-12 06:46:00,
2013-11-11 23:51:00,47.2,22.9,30.31,NNW,338,0.4,0.4,38,0.00,,---,0.00,VWS V14.01,2013-11-12 06:51:00,
2013-11-11 23:56:00,46.6,22.4,30.31,NW,315,1.1,1.1,38,0.00,,---,0.00,VWS V14.01,2013-11-12 06:56:00,